Flag for Iran Weather past 2 weeks in Behbahan, Iran

Now
102 °F

Sunny.


Feels Like: 97 °F
Forecast: 83 / 118 °F
Wind: 9 mph from West

Location: Gach Saran Du Gunbadan

Current Time: Jul 2, 2015 at 9:27:51 PM

Latest Report: Jul 2, 2015 at 8:30 PM


Visibility: 10 mi

Pressure: 29.71 "Hg

Humidity: 9%

Dew point: 34 °F

Location of BehbahanLocation

Historic Weather in Behbahan — Graph

°F

Behbahan temperature yesterday

Maximum temperature yesterday: 109 °F (at 2:30 PM)
Minimum temperature yesterday: 77 °F (at 6:30 AM)
Average temperature yesterday: 96 °F

Past Weeks' High & Low Weather Summary

 TemperatureHumidityPressure
High113 °F (Jul 2, 12:30 PM)27% (Jun 27, 6:30 AM)29.80 "Hg (Jun 27, 6:30 AM)
Low75 °F (Jun 18, 6:30 AM)5% (Jun 18, 4:30 PM)29.59 "Hg (Jun 21, 2:29 AM)
Average93 °F13%29.68 "Hg
* Reported Jun 17 8:30 PM — Jul 2 8:30 PM, Behbahan, Weather by CustomWeather, © 2015

Note: Actual official high and low records may vary slightly from our data, if they occured in-between our weather recording intervals... More about our weather records

Advertising

Behbahan weather history for previous 24 hours

 ConditionsComfort  
Time TempWeatherWind HumidityBarometerVisibility
8:30 PM
Thu, Jul 2
102 °FSunny.9 mph9%29.71 "Hg10 mi
7:30 PM106 °FSunny.12 mph6%29.71 "Hg10 mi
6:30 PM108 °FSunny.14 mph6%29.71 "Hg10 mi
5:30 PM109 °FSunny.14 mph6%29.68 "Hg10 mi
4:30 PM111 °FSunny.14 mph6%29.71 "Hg10 mi
3:30 PM113 °FSunny.No wind5%29.74 "Hg10 mi
2:30 PM113 °FSunny.5 mph5%29.74 "Hg10 mi
1:30 PM113 °FSunny.No wind5%29.74 "Hg10 mi
12:30 PM113 °FSunny.5 mph5%29.74 "Hg10 mi
10:30 AM106 °FSunny.7 mph7%29.77 "Hg10 mi
9:30 AM102 °FSunny.No wind10%29.77 "Hg4 mi
8:30 AM91 °FClear.2 mph16%29.77 "Hg4 mi
7:30 AM84 °FClear.2 mph19%29.77 "Hg4 mi
6:30 AM79 °FClear.2 mph23%29.74 "Hg4 mi
5:30 AM84 °FClear.2 mph19%29.74 "Hg4 mi
4:30 AM82 °FClear.2 mph21%29.71 "Hg4 mi
3:30 AM81 °FClear.2 mph20%29.71 "Hg4 mi
2:30 AM84 °FClear.2 mph20%29.71 "Hg4 mi
1:30 AM88 °FClear.2 mph16%29.71 "Hg4 mi
12:30 AM90 °FClear.No wind17%29.74 "Hg4 mi
11:30 PM
Wed, Jul 1
91 °FClear.2 mph14%29.74 "Hg4 mi
10:30 PM95 °FClear.2 mph11%29.71 "Hg4 mi
9:30 PM99 °FClear.7 mph10%29.71 "Hg4 mi
Weather by CustomWeather, © 2015

See weather overviewHow to use our weather pages